[TLELIST] Archives

 

[list_settings.list_name] Current TLEs

May 20th 2009 PST

HST 1 20580U 90037B 09139.25487269 .00034212 00000-0 26052-2 0 3914 2 20580 028.4699 291.1210 0003283 335.1403 040.1721 15.00832325845502 ISS (ZARYA) 1 25544U 98067A 09138.90838578 +.00012372 +00000-0 +93392-4 0 08779 2 25544 051.6395 097.0887 0009621 018.5011 096.1747 15.72879981601349 CXO 1 25867U 99040B 09140.04166667 +.00000587 +00000-0 +10000-3 0 03279 2 25867 065.3253 070.1974 7473017 276.0693 357.2867 00.37809176004906 ____________________________________________________________________ These 2-Line ...Continue Reading

[list_settings.list_name] Current TLEs

May 19th 2009 PST

HST 1 20580U 90037B 09137.53482258 +.00028797 +00000-0 +21992-2 0 03892 2 20580 028.4711 302.3440 0003490 318.3053 105.5759 15.00716346845243 ISS (ZARYA) 1 25544U 98067A 09139.17489583 .00012349 00000-0 93201-4 0 8792 2 25544 051.6390 095.7223 0009583 020.1639 164.6062 15.72886232601387 CXO 1 25867U 99040B 09137.41666667 +.00000529 +00000-0 +10000-3 0 03266 2 25867 065.3117 070.2838 7468658 276.0614 359.9980 00.37806827004896 ____________________________________________________________________ These 2-Line ...Continue Reading

[list_settings.list_name] Current TLEs

May 18th 2009 PST

HST 1 20580U 90037B 09136.53526759 +.00019421 +00000-0 +14844-2 0 03887 2 20580 028.4723 308.8659 0002538 310.1905 103.0499 15.00631209845098 ISS (ZARYA) 1 25544U 98067A 09137.50842830 .00012694 00000-0 95854-4 0 8693 2 25544 051.6396 104.2640 0009336 014.2838 088.0754 15.72844444601121 CXO 1 25867U 99040B 09137.41666667 +.00000529 +00000-0 +10000-3 0 03266 2 25867 065.3117 070.2838 7468658 276.0614 359.9980 00.37806827004896 ____________________________________________________________________ These 2-Line ...Continue Reading

[list_settings.list_name] Current TLEs

May 17th 2009 PST

HST 1 20580U 90037B 09134.53767208 +.00042590 +00000-0 +32649-2 0 03876 2 20580 028.4844 321.9009 0002635 308.8673 091.8764 15.00571298844797 ISS (ZARYA) 1 25544U 98067A 09136.80634757 .00011650 00000-0 88442-4 0 8643 2 25544 051.6393 107.8636 0009365 011.4018 072.9365 15.72821041601019 CXO 1 25867U 99040B 09134.75000000 +.00000409 +00000-0 +10000-3 0 03237 2 25867 065.3014 070.3515 7464332 276.0653 357.0083 00.37805998004883 ____________________________________________________________________ These 2-Line ...Continue Reading

[list_settings.list_name] Current TLEs

May 16th 2009 PST

HST 1 20580U 90037B 09134.53767208 +.00042590 +00000-0 +32649-2 0 03876 2 20580 028.4844 321.9009 0002635 308.8673 091.8764 15.00571298844797 ISS (ZARYA) 1 25544U 98067A 09136.17518505 .00011336 00000-0 86240-4 0 8594 2 25544 051.6388 111.0991 0009415 008.6075 099.5948 15.72804077600911 CXO 1 25867U 99040B 09134.75000000 +.00000409 +00000-0 +10000-3 0 03237 2 25867 065.3014 070.3515 7464332 276.0653 357.0083 00.37805998004883 ____________________________________________________________________ These 2-Line ...Continue Reading

[list_settings.list_name] Current TLEs

May 15th 2009 PST

HST 1 20580U 90037B 09133.34071759 -.00101332 -35383-5 -30216-3 0 03861 2 20580 028.4641 329.7994 0238182 072.7299 292.4253 15.58645058844612 ISS (ZARYA) 1 25544U 98067A 09135.15841635 .00010142 00000-0 77744-4 0 8520 2 25544 051.6385 116.3109 0009434 004.8950 102.4223 15.72775338600757 CXO 1 25867U 99040B 09132.21317873 .00000000 00000-0 10000-3 0 3254 2 25867 065.2920 070.4031 7456959 276.0809 011.6634 00.37815049 4884 ____________________________________________________________________ These 2-Line ...Continue Reading

[list_settings.list_name] Current TLEs

May 14th 2009 PST

HST 1 20580U 90037B 09132.93383239 +.00000388 +00000-0 +17126-4 0 03915 2 20580 028.4692 332.3792 0003661 283.8491 076.1691 15.00483233844553 ISS (ZARYA) 1 25544U 98067A 09132.86666337 +.00007957 +00000-0 +62134-4 0 08414 2 25544 051.6381 128.0575 0009238 356.0283 086.8599 15.72720878600393 CXO 1 25867U 99040B 09132.12500000 +.00000298 +00000-0 +10000-3 0 03226 2 25867 065.2923 070.4297 7459513 276.0695 359.6709 00.37806577004876 ____________________________________________________________________ These 2-Line ...Continue Reading

[list_settings.list_name] Current TLEs

May 13th 2009 PST

HST 1 20580U 90037B 09131.93611587 +.00000361 +00000-0 +15076-4 0 03939 2 20580 028.4693 338.8866 0003709 272.6057 087.4111 15.00482640844401 ISS (ZARYA) 1 25544U 98067A 09133.20171296 .00007941 00000-0 62008-4 0 8422 2 25544 051.6379 126.3404 0009215 357.2974 183.8555 15.72726624600448 CXO 1 25867U 99040B 09132.12500000 +.00000298 +00000-0 +10000-3 0 03226 2 25867 065.2923 070.4297 7459513 276.0695 359.6709 00.37806577004876 ____________________________________________________________________ These 2-Line ...Continue Reading

[list_settings.list_name] Current TLEs

May 12th 2009 PST

HST 1 20580U 90037B 09131.93611587 .00000361 00000-0 15076-4 0 3850 2 20580 028.4693 338.8866 0003709 272.6057 087.4111 15.00482640844401 ISS (ZARYA) 1 25544U 98067A 09132.16995506 .00007961 00000-0 62199-4 0 8371 2 25544 051.6380 131.6284 0009180 353.7485 101.8775 15.72708900600287 CXO 1 25867U 99040B 09132.12500000 +.00000298 +00000-0 +10000-3 0 03226 2 25867 065.2923 070.4297 7459513 276.0695 359.6709 00.37806577004876 ____________________________________________________________________ These 2-Line ...Continue Reading

[list_settings.list_name] Current TLEs

May 11th 2009 PST

HST 1 20580U 90037B 09130.87188475 .00000312 00000-0 11264-4 0 3847 2 20580 028.4693 345.8276 0003809 261.6174 098.3983 15.00481906844247 ISS (ZARYA) 1 25544U 98067A 09130.81861111 .00009345 00000-0 72252-4 0 8295 2 25544 051.6386 138.5545 0009365 348.3756 011.1884 15.72691069600062 CXO 1 25867U 99040B 09126.83333333 +.00000354 +00000-0 +10000-3 0 03212 2 25867 065.2711 070.5744 7445696 276.1145 359.2721 00.37805562004858 ____________________________________________________________________ These 2-Line ...Continue Reading
  • This mailing list is a public mailing list - anyone may join or leave, at any time.
  • This mailing list is announce-only.

International Space Station (ISS) / Hubble Space Telescope (HST) / Chandra X-Ray Observatory Orbital Data via EMAIL

Privacy Policy:

Private list